This demonstration page uses our WeatherBlox Daily Observations layout. Learn more.

38.88101, -77.10428

Hourly Observations for January 2, 2017

Temp ( °F °C ) Dew Point ( °F °C ) Humidity (%) Winds ( mph kmh ) Pressure ( in mb ) Visibility ( mi km ) Precip ( " mm )
12:52 am 00:52 Cloudy 46 7.8 34 1.1 63 63 Calm 30.37 1029 10 16.0934 0 0
1:52 am 01:52 Cloudy with Light Rain 44 6.7 35 1.7 71 71 Calm 30.38 1029 10 16.0934 0.01 0.254
2:52 am 02:52 Cloudy with Light Drizzle 42 5.6 38 3.3 85 85 ENE 6 9 30.39 1029 10 16.0934 0.01 0.254
3:22 am 03:22 Cloudy with Light Rain 43 6 39 4 87 87 N 6 9 30.39 1029 7 11.26538 0 0
3:52 am 03:52 Cloudy with Light Drizzle 42 5.6 39 3.9 89 89 NE 7 11 30.39 1029 6 9.65604 0.03 0.762
4:38 am 04:38 Cloudy with Light Drizzle 41 5 39 4 93 93 NNE 8 13 30.39 1029 4 6.43736 0 0
4:45 am 04:45 Cloudy with Light Drizzle 41 5 40 4.4 96 96 NNE 7 11 30.39 1029 4 6.43736 0.02 0.508
4:49 am 04:49 Cloudy with Light Rain 41 5 39 4 93 93 NNE 7 11 30.39 1029 4 6.43736 0.02 0.508
4:52 am 04:52 Cloudy with Light Rain 41 5 40 4.4 96 96 NNE 7 11 30.38 1029 4 6.43736 0.02 0.508
5:07 am 05:07 Cloudy with Light Rain 41 5 40 4.4 96 96 NE 8 13 30.39 1029 4 6.43736 0 0.0254
5:09 am 05:09 Cloudy with Light Drizzle 41 5 40 4.4 96 96 NE 9 15 30.39 1029 3 4.82802 0 0.0254
5:52 am 05:52 Cloudy with Light Drizzle 41 5 40 4.4 96 96 NNE 10 17 30.39 1029 3 4.82802 0.01 0.254
6:44 am 06:44 Cloudy with Light Drizzle 41 5 39 4 93 93 NE 9 15 30.39 1029 2.5 4.02335 0 0
6:52 am 06:52 Cloudy with Light Drizzle 41 5 40 4.4 96 96 NE 9 15 30.37 1029 2.5 4.02335 0 0.0254
7:52 am 07:52 Cloudy with Light Drizzle 41 5 41 5 100 100 NE 8 13 30.38 1029 2.5 4.02335 0 0.0254
8:08 am 08:08 Cloudy with Light Drizzle 41 5 41 5 100 100 NNE 8 13 30.39 1029 1.5 2.41401 0 0
8:52 am 08:52 Cloudy with Light Rain 42 5.6 41 5 96 96 NE 7 11 30.38 1029 2 3.21868 0.1 2.54
9:03 am 09:03 Cloudy with Rain 43 6 41 5 93 93 NE 6 9 30.39 1029 1.5 2.41401 0 0
9:46 am 09:46 Cloudy with Light Rain 43 6 43 6 100 100 NNE 8 13 30.39 1029 2.5 4.02335 0 0
9:49 am 09:49 Cloudy with Light Rain 43 6 43 6 100 100 NE 7 11 30.39 1029 3 4.82802 0.07 1.778
9:52 am 09:52 Cloudy with Light Rain 43 6.1 42 5.6 97 97 NNE 8 13 30.38 1029 3 4.82802 0.07 1.778
10:37 am 10:37 Cloudy with Light Rain 44 6.7 43 6.1 96 96 NE 8 13 30.36 1028 2.5 4.02335 0.02 0.508
10:48 am 10:48 Cloudy with Light Rain 45 7 43 6 93 93 NE 8 13 30.36 1028 2 3.21868 0 0
10:52 am 10:52 Cloudy with Light Rain 44 6.7 43 6.1 96 96 NE 8 13 30.37 1028 2.5 4.02335 0.03 0.762
11:16 am 11:16 Cloudy with Light Rain 45 7 43 6 93 93 NE 8 13 30.36 1028 3 4.82802 0 0
11:43 am 11:43 Cloudy with Mist and Fog 45 7 45 7 100 100 NNE 7 11 30.33 1027 2.5 4.02335 0 0
11:52 am 11:52 Cloudy with Mist and Fog 45 7 45 7 100 100 NNE 9 15 30.33 1027 2 3.21868 0 0
12:21 pm 12:21 Cloudy with Light Drizzle 45 7.2 44 6.7 97 97 N 8 13 30.33 1027 1.75 2.816345 0 0.0254
12:52 pm 12:52 Cloudy with Light Rain 44 6.7 44 6.7 100 100 NNE 10 17 30.3 1026 1.25 2.011675 0.01 0.254
1:52 pm 13:52 Cloudy with Light Rain 44 6.7 43 6.1 96 96 NNE 9 15 30.29 1026 1.75 2.816345 0.02 0.508
2:10 pm 14:10 Cloudy with Mist and Fog 45 7 45 7 100 100 NNE 8 13 30.27 1025 2 3.21868 0 0
2:27 pm 14:27 Cloudy with Light Drizzle 44 6.7 43 6.1 96 96 NNE 10 17 30.3 1026 3 4.82802 0.01 0.254
2:45 pm 14:45 Cloudy with Light Rain 44 6.7 43 6.1 96 96 NE 9 15 30.3 1026 3 4.82802 0.01 0.254
2:52 pm 14:52 Cloudy with Light Rain 44 6.7 43 6.1 96 96 NNE 9 15 30.28 1026 3 4.82802 0.02 0.508
3:31 pm 15:31 Cloudy with Light Rain 44 6.7 43 6.1 96 96 NNE 12 19 30.27 1025 9 14.48406 0 0.0254
3:52 pm 15:52 Cloudy with Light Rain 44 6.7 43 6.1 96 96 NNE 12 19 30.28 1025 10 16.0934 0.01 0.254
3:54 pm 15:54 Cloudy with Light Rain 45 7 43 6 93 93 NNE 10 17 30.27 1025 10 16.0934 0 0
4:19 pm 16:19 Cloudy with Light Drizzle 44 6.7 43 6.1 96 96 NNE 10 17 30.27 1025 5 8.0467 0 0.0254
4:29 pm 16:29 Cloudy with Light Drizzle 44 6.7 43 6.1 96 96 NNE 9 15 30.27 1025 2.5 4.02335 0 0.0254
4:52 pm 16:52 Cloudy with Light Drizzle 44 6.7 43 6.1 96 96 NNE 9 15 30.27 1025 2 3.21868 0 0.0254
5:01 pm 17:01 Cloudy with Light Drizzle 44 6.7 43 6.1 96 96 NE 12 19 30.27 1025 3 4.82802 0 0.0254
5:52 pm 17:52 Cloudy with Light Drizzle 44 6.7 43 6.1 96 96 NNE 9 15 30.26 1025 4 6.43736 0 0.0254
6:52 pm 18:52 Cloudy with Light Drizzle 44 6.7 44 6.7 100 100 NNE 9 15 30.27 1025 3 4.82802 0 0.0254
7:52 pm 19:52 Cloudy with Light Drizzle 44 6.7 43 6.1 96 96 NE 9 15 30.25 1024 6 9.65604 0 0.0254
8:39 pm 20:39 Cloudy 44 6.7 43 6.1 96 96 NE 9 15 30.24 1024 9 14.48406 0 0.0254
8:52 pm 20:52 Cloudy 44 6.7 43 6.1 96 96 NNE 7 11 30.24 1024 10 16.0934 0 0.0254
9:52 pm 21:52 Cloudy 44 6.7 43 6.1 96 96 NNE 9 15 30.22 1023 10 16.0934 0 0
10:34 pm 22:34 Cloudy with Light Drizzle 45 7 43 6 93 93 NNE 9 15 30.21 1023 4 6.43736 0 0
10:52 pm 22:52 Cloudy with Light Drizzle 44 6.7 43 6.1 96 96 NNE 8 13 30.2 1023 3 4.82802 0 0.0254
11:18 pm 23:18 Cloudy with Light Drizzle 45 7 43 6 93 93 N 8 13 30.21 1023 2.5 4.02335 0 0
11:52 pm 23:52 Cloudy with Light Drizzle 43 6 43 6 100 100 NNE 8 13 30.18 1022 2.5 4.02335 0 0
11:56 pm 23:56 Cloudy with Light Drizzle 43 6 43 6 100 100 NNE 8 13 30.18 1022 2 3.21868 0 0

Powered by AerisWeather